[[{"header":{"parameterUnit":"m.s-1","parameterCategory":1,"la1":30.2992,"la2":30.254,"lo1":-89.0895,"lo2":-89.0443,"dy":0.0025,"dx":0.0025,"nx":19,"ny":19,"refTime":"2026-05-06T03:00:00:Z","depth":0,"parameterNumber":2,"parameterNumberName":"U-component_of_WINDS"},"data":[0,0,0,0.0565,0.0568,0.0709,0.0709,0.0879,0.0881,0,0,0,0,0,0,0,0,0,0,0,0.0515,0.0515,0.0565,0.0568,0.0708,0.0709,0.0879,0.0881,0,0,0,0,0,0,0,0,0,0,0,0.0514,0.0515,0.0516,0.0569,0.0708,0.0709,0.0879,0.0777,0,0,0,0,0,0,0,0,0,0,0.0643,0.0586,0.0515,0.0516,0.057,0.0708,0.0709,0.0772,0.0783,0.0811,0,0.083,0,0.0858,0.0891,0.0892,0,0,0,0.0576,0.0577,0.0623,0.0516,0.0571,0.0708,0.0647,0.0779,0.0791,0.0825,0.0833,0.0839,0.0861,0.0892,0.0893,0.1021,0.1022,0,0,0.0568,0.0536,0.0614,0.063,0.0604,0.0643,0.0652,0.0786,0.0793,0.0833,0.0843,0.0863,0.0893,0.0895,0.1021,0.1021,0,0,0,0.0541,0.053,0.0573,0.0623,0.0649,0.0647,0.0657,0.0787,0.0804,0.0845,0.0865,0.0894,0.0896,0.1021,0.1021,0.1002,0,0,0,0.0536,0.0514,0.0569,0.0551,0.0646,0.0719,0.0654,0.0794,0.0811,0.0865,0.0894,0.0898,0.1021,0.1021,0.1002,0.0998,0,0,0,0.0509,0.0511,0.0528,0.0549,0.0607,0.0717,0.0742,0.0799,0.0823,0.0892,0.0898,0.102,0.1021,0.1001,0.0998,0.1023,0,0,0,0.047,0.0508,0.0527,0.0578,0.0606,0.0703,0.0741,0.0816,0.0873,0.0895,0.1021,0.1021,0.1001,0.0998,0.1022,0.1037,0.104,0,0,0.05,0.0511,0.0544,0.0564,0.065,0.0685,0.0769,0.0853,0.089,0.0977,0.098,0.1002,0.0998,0.1023,0.1069,0.1071,0,0,0,0.0542,0.0565,0.0595,0.0647,0.0712,0.0768,0.0842,0.0874,0.0948,0.0927,0.1018,0.1017,0.1033,0.1042,0.1044,0.106,0.1024,0.1024,0.1024,0.0538,0.0583,0.0641,0.0704,0.0755,0.0832,0.0879,0.0935,0.0966,0.0988,0.1013,0.1035,0.1044,0.1046,0.1062,0.1025,0.1025,0.1025,0.1025,0.0587,0.0627,0.0669,0.074,0.0789,0.085,0.0928,0.0949,0.1015,0.1019,0.1036,0.1035,0.1046,0.1064,0.1024,0.1024,0.1024,0.1024,0.1024,0.0589,0.0616,0.0653,0.0735,0.0794,0.0859,0.092,0.0963,0.1005,0.1021,0.1054,0.1054,0.1061,0.1034,0.1034,0.1034,0.1034,0.1034,0.1034,0.0575,0.0619,0.0664,0.0737,0.0778,0.0837,0.0918,0.0961,0.1019,0.1046,0.1046,0.1077,0.1039,0.1028,0.1035,0.1035,0.1035,0.1035,0.1035,0.0607,0.0607,0.0677,0.0718,0.081,0.0867,0.0922,0.1005,0.1047,0.1077,0.1105,0.107,0.1084,0.1083,0.1075,0.1094,0.1094,0.1094,0.1094,0.0609,0.062,0.0703,0.0766,0.0833,0.089,0.0972,0.1037,0.1105,0.1134,0.1138,0.1131,0.1128,0.1145,0.1142,0.1135,0.1169,0.1169,0.1169,0.0631,0.0652,0.0711,0.0775,0.0851,0.0917,0.0996,0.1069,0.1146,0.1173,0.1159,0.1156,0.1145,0.1139,0.1163,0.1159,0.1147,0,0]},{"header":{"parameterUnit":"m.s-1","parameterCategory":1,"la1":30.2992,"la2":30.254,"lo1":-89.0895,"lo2":-89.0443,"dy":0.0025,"dx":0.0025,"nx":19,"ny":19,"refTime":"2026-05-06T03:00:00:Z","depth":0,"parameterNumber":3,"parameterNumberName":"V-component_of_WINDS"},"data":[0,0,0,-0.2061,-0.2054,-0.1736,-0.1735,-0.1328,-0.1324,0,0,0,0,0,0,0,0,0,0,0,-0.2159,-0.2156,-0.2061,-0.2054,-0.1736,-0.1735,-0.1328,-0.1324,0,0,0,0,0,0,0,0,0,0,0,-0.216,-0.2157,-0.2154,-0.2052,-0.1737,-0.1735,-0.1329,-0.1568,0,0,0,0,0,0,0,0,0,0,-0.1876,-0.1972,-0.2158,-0.2154,-0.2051,-0.1737,-0.1735,-0.1579,-0.1553,-0.1473,0,-0.1407,0,-0.136,-0.1297,-0.1296,0,0,0,-0.2049,-0.1994,-0.1905,-0.2153,-0.2048,-0.1737,-0.1878,-0.1565,-0.1535,-0.1438,-0.1401,-0.1386,-0.1353,-0.1295,-0.1293,-0.0857,-0.0855,0,0,-0.2066,-0.2102,-0.1926,-0.1886,-0.1941,-0.1888,-0.1868,-0.1547,-0.1506,-0.1399,-0.1376,-0.1346,-0.1292,-0.1289,-0.0858,-0.0856,0,0,0,-0.212,-0.2115,-0.2034,-0.1903,-0.1847,-0.1879,-0.1856,-0.1521,-0.1492,-0.1371,-0.1341,-0.129,-0.1285,-0.086,-0.0858,-0.0803,0,0,0,-0.213,-0.2146,-0.2042,-0.2061,-0.1853,-0.168,-0.1838,-0.1514,-0.1477,-0.1343,-0.129,-0.1281,-0.0862,-0.0859,-0.0809,-0.0769,0,0,0,-0.2178,-0.2152,-0.2108,-0.2063,-0.1929,-0.1685,-0.1637,-0.1505,-0.1458,-0.1296,-0.128,-0.0864,-0.086,-0.0814,-0.0778,-0.0665,0,0,0,-0.2238,-0.2061,-0.2108,-0.1898,-0.1932,-0.1656,-0.1639,-0.143,-0.1285,-0.1288,-0.0862,-0.0858,-0.0816,-0.0783,-0.0671,-0.0574,-0.0539,0,0,-0.2034,-0.2038,-0.1912,-0.1944,-0.1671,-0.1702,-0.1417,-0.1247,-0.1196,-0.0972,-0.0961,-0.0807,-0.0778,-0.0666,-0.0331,-0.0304,0,0,0,-0.1859,-0.1769,-0.1689,-0.1555,-0.1425,-0.1308,-0.1179,-0.1116,-0.0925,-0.109,-0.0736,-0.0718,-0.065,-0.0602,-0.0578,-0.0517,-0.0838,-0.0839,-0.0839,-0.1618,-0.1569,-0.1356,-0.1268,-0.1138,-0.1009,-0.0897,-0.079,-0.0773,-0.0691,-0.0622,-0.0426,-0.0372,-0.0354,-0.029,-0.057,-0.057,-0.057,-0.057,-0.1313,-0.1176,-0.1165,-0.0955,-0.0901,-0.0722,-0.0591,-0.0586,-0.0409,-0.0473,-0.0411,-0.0482,-0.0325,-0.0266,-0.0565,-0.0566,-0.0566,-0.0567,-0.0567,-0.1147,-0.1073,-0.1005,-0.0807,-0.066,-0.0576,-0.0408,-0.0365,-0.0322,-0.0261,-0.0183,-0.0184,-0.0177,-0.0228,-0.0227,-0.0227,-0.0226,-0.0226,-0.0225,-0.1001,-0.0926,-0.0792,-0.0642,-0.0552,-0.0426,-0.0297,-0.0205,-0.0091,-0.0072,-0.0071,-0.0061,-0.0321,-0.0386,-0.0214,-0.0216,-0.0218,-0.0219,-0.0219,-0.0704,-0.0766,-0.0559,-0.0469,-0.029,-0.0146,-0.0096,0.0088,0.017,0.0252,0.0247,0.0046,0.0049,0.003,-0.0022,0.0233,0.0233,0.0233,0.0233,-0.0562,-0.056,-0.034,-0.0198,-0.0054,0.0011,0.0246,0.0348,0.0444,0.0499,0.0468,0.04,0.0379,0.0394,0.0367,0.0319,0.0656,0.0656,0.0657,-0.0375,-0.0358,-0.0167,-0.0079,0.0063,0.0185,0.0409,0.0574,0.0671,0.0675,0.0544,0.0526,0.0417,0.0379,0.0384,0.0342,0.0254,0,0]}]]